Time,TemperatureF,DewpointF,PressureIn,WindDirection,WindDirectionDegrees,WindSpeedMPH,WindSpeedGustMPH,Humidity,HourlyPrecipIn,Conditions,Clouds,dailyrainin,SoftwareType,DateUTC
2013-07-25 00:12:00,83.0,-99.9,29.99,NW,307,6.0,8.0,-999,-99.99,,,-99.99,,2013-07-25 04:12:00,
2013-07-25 00:22:00,83.0,-99.9,29.99,WNW,296,4.0,7.0,-999,-99.99,,,-99.99,,2013-07-25 04:22:00,
2013-07-25 00:33:00,83.0,-99.9,29.99,NW,305,6.0,8.0,-999,-99.99,,,-99.99,,2013-07-25 04:33:00,
2013-07-25 00:43:00,83.0,-99.9,29.99,NNW,334,3.0,6.0,-999,-99.99,,,-99.99,,2013-07-25 04:43:00,
2013-07-25 01:12:00,83.0,-99.9,29.99,NW,309,5.0,6.0,-999,-99.99,,,-99.99,,2013-07-25 05:12:00,
2013-07-25 01:22:00,83.0,-99.9,29.99,WNW,296,3.0,7.0,-999,-99.99,,,-99.99,,2013-07-25 05:22:00,
2013-07-25 01:32:00,83.0,-99.9,29.98,NW,308,4.0,5.0,-999,-99.99,,,-99.99,,2013-07-25 05:32:00,
2013-07-25 01:43:00,83.0,-99.9,29.98,WNW,292,5.0,7.0,-999,-99.99,,,-99.99,,2013-07-25 05:43:00,
2013-07-25 02:02:00,83.0,-99.9,29.98,NW,305,5.0,6.0,-999,-99.99,,,-99.99,,2013-07-25 06:02:00,
2013-07-25 02:32:00,83.0,-99.9,29.97,NNW,328,3.0,6.0,-999,-99.99,,,-99.99,,2013-07-25 06:32:00,
2013-07-25 02:42:00,82.0,-99.9,29.96,NW,306,4.0,5.0,-999,-99.99,,,-99.99,,2013-07-25 06:42:00,
2013-07-25 02:52:00,82.0,-99.9,29.96,NW,313,4.0,4.0,-999,-99.99,,,-99.99,,2013-07-25 06:52:00,
2013-07-25 03:02:00,82.0,-99.9,29.96,NW,305,4.0,5.0,-999,-99.99,,,-99.99,,2013-07-25 07:02:00,
2013-07-25 03:12:00,82.0,-99.9,29.96,West,262,2.0,5.0,-999,-99.99,,,-99.99,,2013-07-25 07:12:00,
2013-07-25 03:22:00,81.0,-99.9,29.95,WSW,249,2.0,4.0,-999,-99.99,,,-99.99,,2013-07-25 07:22:00,
2013-07-25 03:33:00,81.0,-99.9,29.95,SW,227,2.0,3.0,-999,-99.99,,,-99.99,,2013-07-25 07:33:00,
2013-07-25 03:43:00,81.0,-99.9,29.95,West,263,2.0,4.0,-999,-99.99,,,-99.99,,2013-07-25 07:43:00,
2013-07-25 04:02:00,81.0,-99.9,29.95,WSW,258,3.0,4.0,-999,-99.99,,,-99.99,,2013-07-25 08:02:00,
2013-07-25 04:12:00,81.0,-99.9,29.95,SW,232,2.0,4.0,-999,-99.99,,,-99.99,,2013-07-25 08:12:00,
2013-07-25 04:52:00,81.0,-99.9,29.94,WSW,243,3.0,4.0,-999,-99.99,,,-99.99,,2013-07-25 08:52:00,
2013-07-25 05:02:00,81.0,-99.9,29.94,WSW,242,2.0,5.0,-999,-99.99,,,-99.99,,2013-07-25 09:02:00,
2013-07-25 05:12:00,81.0,-99.9,29.94,WSW,237,2.0,4.0,-999,-99.99,,,-99.99,,2013-07-25 09:12:00,
2013-07-25 05:43:00,81.0,-99.9,29.95,SSW,198,1.0,4.0,-999,-99.99,,,-99.99,,2013-07-25 09:43:00,
2013-07-25 06:03:00,81.0,-99.9,29.95,South,184,3.0,4.0,-999,-99.99,,,-99.99,,2013-07-25 10:03:00,
2013-07-25 06:22:00,81.0,-99.9,29.95,South,178,1.0,2.0,-999,-99.99,,,-99.99,,2013-07-25 10:22:00,
2013-07-25 06:32:00,80.0,-99.9,29.95,South,176,2.0,4.0,-999,-99.99,,,-99.99,,2013-07-25 10:32:00,
2013-07-25 06:43:00,81.0,-99.9,29.95,SSW,203,3.0,4.0,-999,-99.99,,,-99.99,,2013-07-25 10:43:00,
2013-07-25 07:12:00,80.0,-99.9,29.96,South,183,2.0,4.0,-999,-99.99,,,-99.99,,2013-07-25 11:12:00,
2013-07-25 07:22:00,80.0,-99.9,29.96,SSW,202,4.0,5.0,-999,-99.99,,,-99.99,,2013-07-25 11:22:00,
2013-07-25 07:32:00,81.0,-99.9,29.96,SW,220,2.0,6.0,-999,-99.99,,,-99.99,,2013-07-25 11:32:00,
2013-07-25 07:43:00,82.0,-99.9,29.97,South,191,2.0,4.0,-999,-99.99,,,-99.99,,2013-07-25 11:43:00,
2013-07-25 08:12:00,85.0,-99.9,29.97,WSW,245,1.0,4.0,-999,-99.99,,,-99.99,,2013-07-25 12:12:00,
2013-07-25 08:23:00,85.0,-99.9,29.98,SW,220,2.0,6.0,-999,-99.99,,,-99.99,,2013-07-25 12:23:00,
2013-07-25 08:45:00,88.0,-99.9,29.99,SW,233,1.0,7.0,-999,-99.99,,,-99.99,,2013-07-25 12:45:00,
2013-07-25 09:12:00,88.0,-99.9,30.00,WSW,246,6.0,8.0,-999,-99.99,,,-99.99,,2013-07-25 13:12:00,
2013-07-25 09:22:00,87.0,-99.9,30.00,WSW,239,4.0,7.0,-999,-99.99,,,-99.99,,2013-07-25 13:22:00,
2013-07-25 10:00:00,91.0,-99.9,30.01,WSW,258,4.0,7.0,-999,-99.99,,,-99.99,,2013-07-25 14:00:00,
2013-07-25 10:22:00,91.0,-99.9,30.01,WSW,241,3.0,8.0,-999,-99.99,,,-99.99,,2013-07-25 14:22:00,
2013-07-25 10:33:00,91.0,-99.9,30.01,WSW,258,4.0,7.0,-999,-99.99,,,-99.99,,2013-07-25 14:33:00,
2013-07-25 10:43:00,91.0,-99.9,30.01,WSW,258,4.0,7.0,-999,-99.99,,,-99.99,,2013-07-25 14:43:00,
2013-07-25 10:53:00,91.0,-99.9,30.01,WSW,258,4.0,7.0,-999,-99.99,,,-99.99,,2013-07-25 14:53:00,
2013-07-25 11:23:00,91.0,-99.9,30.02,WSW,240,5.0,8.0,-999,-99.99,,,-99.99,,2013-07-25 15:23:00,
2013-07-25 11:33:00,91.0,-99.9,30.03,WSW,244,3.0,7.0,-999,-99.99,,,-99.99,,2013-07-25 15:33:00,
2013-07-25 11:44:00,91.0,-99.9,30.04,West,277,6.0,9.0,-999,-99.99,,,-99.99,,2013-07-25 15:44:00,
2013-07-25 12:02:00,91.0,-99.9,30.04,West,273,7.0,10.0,-999,-99.99,,,-99.99,,2013-07-25 16:02:00,
2013-07-25 13:12:00,91.0,-99.9,30.04,SSW,202,3.0,10.0,-999,-99.99,,,-99.99,,2013-07-25 17:12:00,
2013-07-25 13:22:00,91.0,-99.9,30.05,WSW,248,4.0,7.0,-999,-99.99,,,-99.99,,2013-07-25 17:22:00,
2013-07-25 13:43:00,91.0,-99.9,30.05,WSW,257,5.0,11.0,-999,-99.99,,,-99.99,,2013-07-25 17:43:00,
2013-07-25 14:12:00,87.0,-99.9,30.04,NW,305,11.0,14.0,-999,-99.99,,,-99.99,,2013-07-25 18:12:00,
2013-07-25 14:22:00,87.0,-99.9,30.04,NW,318,11.0,13.0,-999,-99.99,,,-99.99,,2013-07-25 18:22:00,
2013-07-25 14:33:00,87.0,-99.9,30.04,NW,313,11.0,14.0,-999,-99.99,,,-99.99,,2013-07-25 18:33:00,
2013-07-25 14:43:00,87.0,-99.9,30.04,NW,312,14.0,17.0,-999,-99.99,,,-99.99,,2013-07-25 18:43:00,
2013-07-25 15:03:00,87.0,-99.9,30.04,NW,305,11.0,15.0,-999,-99.99,,,-99.99,,2013-07-25 19:03:00,
2013-07-25 15:43:00,87.0,-99.9,30.03,WNW,301,12.0,14.0,-999,-99.99,,,-99.99,,2013-07-25 19:43:00,
2013-07-25 16:03:00,87.0,-99.9,30.03,NW,304,10.0,15.0,-999,-99.99,,,-99.99,,2013-07-25 20:03:00,
2013-07-25 17:03:00,88.0,-99.9,30.03,WNW,289,10.0,13.0,-999,-99.99,,,-99.99,,2013-07-25 21:03:00,
2013-07-25 17:13:00,87.0,-99.9,30.02,WNW,295,9.0,13.0,-999,-99.99,,,-99.99,,2013-07-25 21:13:00,
2013-07-25 17:22:00,87.0,-99.9,30.02,WNW,292,11.0,14.0,-999,-99.99,,,-99.99,,2013-07-25 21:22:00,
2013-07-25 17:33:00,87.0,-99.9,30.03,NW,306,10.0,14.0,-999,-99.99,,,-99.99,,2013-07-25 21:33:00,
2013-07-25 17:44:00,87.0,-99.9,30.03,WNW,302,10.0,14.0,-999,-99.99,,,-99.99,,2013-07-25 21:44:00,
2013-07-25 18:03:00,87.0,-99.9,30.03,WNW,292,10.0,14.0,-999,-99.99,,,-99.99,,2013-07-25 22:03:00,
2013-07-25 19:12:00,85.0,-99.9,30.03,NW,305,11.0,14.0,-999,-99.99,,,-99.99,,2013-07-25 23:12:00,
2013-07-25 20:02:00,84.0,-99.9,30.03,WNW,294,14.0,16.0,-999,-99.99,,,-99.99,,2013-07-26 00:02:00,
2013-07-25 20:12:00,84.0,-99.9,30.03,WNW,303,12.0,16.0,-999,-99.99,,,-99.99,,2013-07-26 00:12:00,
2013-07-25 20:33:00,84.0,-99.9,30.03,WNW,299,12.0,15.0,-999,-99.99,,,-99.99,,2013-07-26 00:33:00,
2013-07-25 20:43:00,84.0,-99.9,30.04,WNW,296,10.0,14.0,-999,-99.99,,,-99.99,,2013-07-26 00:43:00,
2013-07-25 21:02:00,84.0,-99.9,30.04,WNW,292,10.0,16.0,-999,-99.99,,,-99.99,,2013-07-26 01:02:00,
2013-07-25 21:22:00,84.0,-99.9,30.04,WNW,295,9.0,15.0,-999,-99.99,,,-99.99,,2013-07-26 01:22:00,
2013-07-25 21:43:00,84.0,-99.9,30.05,WNW,293,10.0,14.0,-999,-99.99,,,-99.99,,2013-07-26 01:43:00,
2013-07-25 22:02:00,84.0,-99.9,30.05,WNW,284,11.0,13.0,-999,-99.99,,,-99.99,,2013-07-26 02:02:00,
2013-07-25 22:43:00,84.0,-99.9,30.06,WNW,284,6.0,11.0,-999,-99.99,,,-99.99,,2013-07-26 02:43:00,
2013-07-25 23:02:00,83.0,-99.9,30.06,West,268,6.0,10.0,-999,-99.99,,,-99.99,,2013-07-26 03:02:00,
2013-07-25 23:12:00,84.0,-99.9,30.05,WNW,286,8.0,11.0,-999,-99.99,,,-99.99,,2013-07-26 03:12:00,
2013-07-25 23:22:00,83.0,-99.9,30.06,West,267,4.0,8.0,-999,-99.99,,,-99.99,,2013-07-26 03:22:00,
2013-07-25 23:33:00,83.0,-99.9,30.06,West,278,6.0,9.0,-999,-99.99,,,-99.99,,2013-07-26 03:33:00,
2013-07-25 23:44:00,83.0,-99.9,30.06,WSW,252,4.0,9.0,-999,-99.99,,,-99.99,,2013-07-26 03:44:00,